155  
ASUS42 KMLB 201211  
RWRMLB  
HOURLY WEATHER ROUNDUP AROUND FLORIDA  
NATIONAL WEATHER SERVICE OFFICE MELBOURNE FL  
800 AM EDT SAT OCT 20 2018  
 
CITY SKY/WX TMP DP RH WIND PRES REMARKS
 
MELBOURNE FAIR 73 72 96 W3 30.06S  
FORT PIERCE FAIR 71 69 93 CALM 30.06R  
ORLANDO INTL FAIR 71 71 100 CALM 30.06F FOG  
DAYTONA BEACH FAIR 71 71 100 CALM 30.06S  
VERO BEACH FAIR 72 71 97 CALM 30.06S  

   
..ELSEWHERE ACROSS CENTRAL FLORIDA
 
 
 
CITY SKY/WX TMP DP RH WIND PRES REMARKS
 
PATRICK AFB FAIR 77 77 100 NW5 30.06R  
KSC MOCLDY 73 71 96 CALM N/A  
CAPE CANAVERAL FAIR 71 70 96 CALM 30.04F  
TITUSVILLE PTCLDY N/A N/A N/A CALM 30.07F  
ORLANDO EXEC FAIR 73 73 100 CALM 30.06S  
LEESBURG FAIR 70 70 100 CALM 30.07S  
SANFORD FAIR 71 71 100 CALM 30.06S  
DELAND FAIR 72 70 94 CALM 30.06S  
NEW SMYRNA BCH PTCLDY 72 70 94 CALM 30.07R  
ORMOND BEACH PTCLDY 68 68 100 CALM 30.06R  
WINTER HAVEN FAIR 75 73 93 CALM 30.08S FOG  
KISSIMMEE FAIR 72 71 97 CALM 30.08S  
OKEECHOBEE N/A 68 68 100 CALM 30.06S  
TAMPA FAIR 75 72 90 CALM 30.07  

   
..NORTHERN FLORIDA
 
 
 
CITY SKY/WX TMP DP RH WIND PRES REMARKS
 
PALM COAST PTCLDY 70 68 94 CALM 30.06R FOG  
ST AUGUSTINE FAIR 72 71 97 W5 30.07S  
OCALA FOG 67 66 97 CALM 30.08R VSB 1/2  
GAINESVILLE FAIR 68 66 93 CALM 30.09S  
JACKSONVILLE FAIR 67 66 97 CALM 30.05F  
TALLAHASSEE FOG 66 66 100 CALM 30.06S VSB 1/16  

   
..ALONG THE SOUTHEAST COAST TO THE KEYS
 
 
 
CITY SKY/WX TMP DP RH WIND PRES REMARKS
 
STUART CLEAR 73 68 83 CALM 30.07R  
WEST PALM BCH FAIR 74 74 100 CALM 30.05R  
MIAMI FAIR 76 74 93 CALM 30.05R  
KEY WEST FAIR 81 71 71 E7 30.04R  

   
..MARINE REPORTS
 
 
 
STATION/POSITION TIME TEMP WIND PRES WAVE SWELL
 
AIR SEA DIR/SP/G HT/PER HT/PER  
(UTC) (F) (DEG/KT/KT) (MB) (FT/S) (FT/S)  
ST AUGUSTINE FP 1200 74 81 250/ 3/ 4 1018.1R  
20NM E CAPE CANA 1150 80 260/ 4/ 6 1017.9R 4/10 3/10  
TRIDENT PIER 1148 77 83 260/ 3/ 4 1019.1S  
SEBASTIAN INLET 1145 76 76 290/ 4 1019.0R  
4NM E PORT CANAV 1130 83 N/A 2/ 9  
6NM NE FPR INLET 1130 83 N/A 3/ 8 2/11  
SETTLEMENT PT GB 1200 81 140/ 5/ 6 1017.4R  

 
 
 
CLICK HERE TO GO TO PREVIOUS BULLETINS.

The Nexlab FL Page Main Text Page